Time,TemperatureF,DewpointF,PressureIn,WindDirection,WindDirectionDegrees,WindSpeedMPH,WindSpeedGustMPH,Humidity,HourlyPrecipIn,Conditions,Clouds,dailyrainin,SoftwareType,DateUTC
2013-05-25 00:00:00,38.7,37.3,29.44,West,270,0.0,2.5,95,0.00,,---,0.00,VWS V14.01,2013-05-25 04:00:00,
2013-05-25 00:01:00,48.6,48.0,29.56,ESE,112,1.3,2.7,98,0.00,,---,1.24,VWS V14.01,2013-05-25 04:01:00,
2013-05-25 00:06:00,48.4,47.8,29.56,NE,45,0.9,0.9,98,0.00,,---,0.00,VWS V14.01,2013-05-25 04:06:00,
2013-05-25 00:11:00,48.4,47.8,29.56,NNE,22,2.5,2.5,98,0.00,,---,0.00,VWS V14.01,2013-05-25 04:11:00,
2013-05-25 00:16:00,48.4,47.8,29.56,ESE,112,0.9,1.1,98,0.00,,---,0.00,VWS V14.01,2013-05-25 04:16:00,
2013-05-25 00:21:00,48.4,47.8,29.56,East,90,0.0,0.0,98,0.00,,---,0.00,VWS V14.01,2013-05-25 04:21:00,
2013-05-25 00:26:00,48.4,47.8,29.56,ENE,68,1.1,1.6,98,0.00,,---,0.00,VWS V14.01,2013-05-25 04:26:00,
2013-05-25 00:31:00,48.4,47.8,29.56,East,90,2.2,2.2,98,0.00,,---,0.00,VWS V14.01,2013-05-25 04:31:00,
2013-05-25 00:36:00,48.4,47.8,29.56,SE,135,0.0,0.0,98,0.00,,---,0.00,VWS V14.01,2013-05-25 04:36:00,
2013-05-25 00:41:00,48.4,47.8,29.53,West,270,2.0,2.7,98,0.00,,---,0.00,VWS V14.01,2013-05-25 04:41:00,
2013-05-25 00:46:00,48.4,47.8,29.53,NNW,338,0.0,0.0,98,0.00,,---,0.00,VWS V14.01,2013-05-25 04:46:00,
2013-05-25 00:51:00,48.4,47.8,29.53,East,90,0.0,2.0,98,0.00,,---,0.00,VWS V14.01,2013-05-25 04:51:00,
2013-05-25 00:56:00,48.4,47.8,29.56,ESE,112,0.0,1.6,98,0.00,,---,0.00,VWS V14.01,2013-05-25 04:56:00,
2013-05-25 01:01:00,48.4,47.8,29.56,East,90,0.9,1.6,98,0.00,,---,0.00,VWS V14.01,2013-05-25 05:01:00,
2013-05-25 01:06:00,48.4,47.8,29.56,East,90,0.0,1.6,98,0.00,,---,0.00,VWS V14.01,2013-05-25 05:06:00,
2013-05-25 01:11:00,48.4,47.8,29.56,NE,45,1.1,1.3,98,0.00,,---,0.00,VWS V14.01,2013-05-25 05:11:00,
2013-05-25 01:16:00,48.4,47.8,29.56,WNW,292,0.9,0.9,98,0.00,,---,0.00,VWS V14.01,2013-05-25 05:16:00,
2013-05-25 01:21:00,48.6,48.0,29.56,SE,135,0.0,1.1,98,0.00,,---,0.00,VWS V14.01,2013-05-25 05:21:00,
2013-05-25 01:25:00,48.6,48.0,29.53,East,90,1.1,4.0,98,0.00,,---,0.00,VWS V14.01,2013-05-25 05:25:00,
2013-05-25 01:30:00,48.7,48.2,29.53,East,90,1.3,2.7,98,0.00,,---,0.00,VWS V14.01,2013-05-25 05:30:00,
2013-05-25 01:35:00,48.6,48.0,29.53,East,90,2.0,2.0,98,0.00,,---,0.00,VWS V14.01,2013-05-25 05:35:00,
2013-05-25 01:40:00,48.7,48.2,29.50,West,270,0.0,1.6,98,0.00,,---,0.00,VWS V14.01,2013-05-25 05:40:00,
2013-05-25 01:45:00,48.7,48.2,29.50,WNW,292,1.1,1.1,98,0.05,,---,0.05,VWS V14.01,2013-05-25 05:45:00,
2013-05-25 01:50:00,48.7,48.2,29.50,South,180,2.2,2.2,98,0.05,,---,0.05,VWS V14.01,2013-05-25 05:50:00,
2013-05-25 01:55:00,48.7,48.2,29.53,East,90,1.3,1.3,98,0.05,,---,0.05,VWS V14.01,2013-05-25 05:55:00,
2013-05-25 02:00:00,48.9,48.4,29.53,SE,135,1.6,1.6,98,0.05,,---,0.05,VWS V14.01,2013-05-25 06:00:00,
2013-05-25 02:05:00,49.1,48.6,29.53,East,90,3.1,3.1,98,0.05,,---,0.05,VWS V14.01,2013-05-25 06:05:00,
2013-05-25 02:10:00,49.1,48.6,29.50,East,90,1.3,2.7,98,0.05,,---,0.05,VWS V14.01,2013-05-25 06:10:00,
2013-05-25 02:15:00,49.3,48.7,29.50,East,90,0.0,0.9,98,0.05,,---,0.05,VWS V14.01,2013-05-25 06:15:00,
2013-05-25 02:20:00,49.3,48.7,29.50,SE,135,0.0,0.0,98,0.05,,---,0.05,VWS V14.01,2013-05-25 06:20:00,
2013-05-25 02:25:00,49.3,48.7,29.50,SSW,202,0.0,0.0,98,0.05,,---,0.05,VWS V14.01,2013-05-25 06:25:00,
2013-05-25 02:30:00,49.1,48.6,29.50,West,270,0.0,0.0,98,0.05,,---,0.05,VWS V14.01,2013-05-25 06:30:00,
2013-05-25 02:35:00,49.1,48.6,29.50,NE,45,0.0,0.0,98,0.05,,---,0.05,VWS V14.01,2013-05-25 06:35:00,
2013-05-25 02:40:00,49.1,48.6,29.50,East,90,3.1,3.1,98,0.05,,---,0.05,VWS V14.01,2013-05-25 06:40:00,
2013-05-25 02:45:00,48.9,48.4,29.50,East,90,2.9,2.9,98,0.00,,---,0.05,VWS V14.01,2013-05-25 06:45:00,
2013-05-25 02:50:00,48.9,48.4,29.50,NNW,338,1.1,2.5,98,0.00,,---,0.05,VWS V14.01,2013-05-25 06:50:00,
2013-05-25 02:55:00,49.1,48.6,29.50,East,90,0.0,0.0,98,0.00,,---,0.05,VWS V14.01,2013-05-25 06:55:00,
2013-05-25 03:00:00,49.1,48.6,29.50,ENE,68,1.1,1.6,98,0.00,,---,0.05,VWS V14.01,2013-05-25 07:00:00,
2013-05-25 03:05:00,49.1,48.6,29.50,ENE,68,0.0,0.0,98,0.04,,---,0.09,VWS V14.01,2013-05-25 07:05:00,
2013-05-25 03:10:00,49.1,48.6,29.50,East,90,0.0,0.0,98,0.04,,---,0.09,VWS V14.01,2013-05-25 07:10:00,
2013-05-25 03:15:00,49.1,48.6,29.50,East,90,0.0,1.1,98,0.04,,---,0.09,VWS V14.01,2013-05-25 07:15:00,
2013-05-25 03:20:00,49.1,48.6,29.50,North,0,0.0,1.3,98,0.04,,---,0.09,VWS V14.01,2013-05-25 07:20:00,
2013-05-25 03:25:00,49.1,48.6,29.50,NW,315,0.0,1.3,98,0.04,,---,0.09,VWS V14.01,2013-05-25 07:25:00,
2013-05-25 03:30:00,49.1,48.6,29.50,South,180,0.0,0.9,98,0.04,,---,0.09,VWS V14.01,2013-05-25 07:30:00,
2013-05-25 03:35:00,49.1,48.6,29.50,West,270,0.0,0.0,98,0.04,,---,0.09,VWS V14.01,2013-05-25 07:35:00,
2013-05-25 03:40:00,49.1,48.6,29.50,NE,45,1.1,1.6,98,0.04,,---,0.09,VWS V14.01,2013-05-25 07:40:00,
2013-05-25 03:45:00,49.1,48.6,29.50,NNE,22,0.0,0.0,98,0.04,,---,0.09,VWS V14.01,2013-05-25 07:45:00,
2013-05-25 03:50:00,48.9,48.4,29.50,NNE,22,2.0,2.5,98,0.04,,---,0.09,VWS V14.01,2013-05-25 07:50:00,
2013-05-25 03:55:00,48.9,48.4,29.50,East,90,2.0,2.0,98,0.04,,---,0.09,VWS V14.01,2013-05-25 07:55:00,
2013-05-25 04:00:00,48.7,48.2,29.50,East,90,0.0,0.0,98,0.04,,---,0.09,VWS V14.01,2013-05-25 08:00:00,
2013-05-25 04:05:00,48.7,48.2,29.50,East,90,1.3,2.0,98,0.00,,---,0.09,VWS V14.01,2013-05-25 08:05:00,
2013-05-25 04:10:00,48.7,48.2,29.50,East,90,2.0,2.0,98,0.00,,---,0.09,VWS V14.01,2013-05-25 08:10:00,
2013-05-25 04:15:00,48.7,48.2,29.50,East,90,0.0,0.0,98,0.04,,---,0.13,VWS V14.01,2013-05-25 08:15:00,
2013-05-25 04:20:00,48.7,48.2,29.50,East,90,0.0,2.0,98,0.04,,---,0.13,VWS V14.01,2013-05-25 08:20:00,
2013-05-25 04:25:00,48.7,48.2,29.50,SE,135,1.6,1.6,98,0.04,,---,0.13,VWS V14.01,2013-05-25 08:25:00,
2013-05-25 04:30:00,48.7,48.2,29.50,East,90,0.0,0.0,98,0.04,,---,0.13,VWS V14.01,2013-05-25 08:30:00,
2013-05-25 04:35:00,48.7,48.2,29.50,East,90,0.9,1.1,98,0.08,,---,0.17,VWS V14.01,2013-05-25 08:35:00,
2013-05-25 04:40:00,48.7,48.2,29.50,SE,135,0.0,0.0,98,0.08,,---,0.17,VWS V14.01,2013-05-25 08:40:00,
2013-05-25 04:45:00,48.7,48.2,29.50,SE,135,1.3,1.3,98,0.08,,---,0.17,VWS V14.01,2013-05-25 08:45:00,
2013-05-25 04:50:00,48.7,48.2,29.50,NW,315,0.0,2.0,98,0.08,,---,0.17,VWS V14.01,2013-05-25 08:50:00,
2013-05-25 04:55:00,48.7,48.2,29.47,NW,315,0.0,0.0,98,0.08,,---,0.17,VWS V14.01,2013-05-25 08:55:00,
2013-05-25 05:00:00,48.7,48.2,29.47,NW,315,0.9,0.9,98,0.08,,---,0.17,VWS V14.01,2013-05-25 09:00:00,
2013-05-25 05:05:00,48.6,48.0,29.47,East,90,2.7,2.7,98,0.08,,---,0.17,VWS V14.01,2013-05-25 09:05:00,
2013-05-25 05:10:00,48.7,48.2,29.50,NE,45,0.0,0.0,98,0.08,,---,0.17,VWS V14.01,2013-05-25 09:10:00,
2013-05-25 05:15:00,48.6,48.0,29.50,East,90,1.1,1.6,98,0.04,,---,0.17,VWS V14.01,2013-05-25 09:15:00,
2013-05-25 05:20:00,48.4,47.8,29.50,East,90,1.1,2.2,98,0.04,,---,0.17,VWS V14.01,2013-05-25 09:20:00,
2013-05-25 05:25:00,48.4,47.8,29.50,NE,45,1.6,1.6,98,0.04,,---,0.17,VWS V14.01,2013-05-25 09:25:00,
2013-05-25 05:30:00,48.4,47.8,29.50,East,90,1.6,2.7,98,0.08,,---,0.21,VWS V14.01,2013-05-25 09:30:00,
2013-05-25 05:35:00,48.4,47.8,29.50,SE,135,2.0,2.0,98,0.04,,---,0.21,VWS V14.01,2013-05-25 09:35:00,
2013-05-25 05:40:00,48.4,47.8,29.50,ENE,68,0.9,0.9,98,0.04,,---,0.21,VWS V14.01,2013-05-25 09:40:00,
2013-05-25 05:45:00,48.4,47.8,29.50,East,90,0.9,1.3,98,0.04,,---,0.21,VWS V14.01,2013-05-25 09:45:00,
2013-05-25 05:50:00,48.4,47.8,29.50,SSW,202,0.0,0.9,98,0.04,,---,0.21,VWS V14.01,2013-05-25 09:50:00,
2013-05-25 05:55:00,48.4,47.8,29.47,NE,45,1.3,2.5,98,0.04,,---,0.21,VWS V14.01,2013-05-25 09:55:00,
2013-05-25 06:00:00,48.2,47.7,29.47,West,270,0.0,0.0,98,0.04,,---,0.21,VWS V14.01,2013-05-25 10:00:00,
2013-05-25 06:05:00,48.4,47.8,29.47,South,180,1.3,1.3,98,0.04,,---,0.21,VWS V14.01,2013-05-25 10:05:00,
2013-05-25 06:10:00,48.4,47.8,29.50,NNE,22,1.3,1.6,98,0.04,,---,0.21,VWS V14.01,2013-05-25 10:10:00,
2013-05-25 06:15:00,48.4,47.8,29.50,South,180,1.3,1.3,98,0.04,,---,0.21,VWS V14.01,2013-05-25 10:15:00,
2013-05-25 06:20:00,48.4,47.8,29.50,East,90,1.6,2.0,98,0.04,,---,0.21,VWS V14.01,2013-05-25 10:20:00,
2013-05-25 06:25:00,48.4,47.8,29.50,East,90,1.3,1.3,98,0.04,,---,0.21,VWS V14.01,2013-05-25 10:25:00,
2013-05-25 06:30:00,48.4,47.8,29.50,ESE,112,1.1,1.1,98,0.00,,---,0.21,VWS V14.01,2013-05-25 10:30:00,
2013-05-25 06:35:00,48.4,47.8,29.50,East,90,0.0,2.5,98,0.00,,---,0.21,VWS V14.01,2013-05-25 10:35:00,
2013-05-25 06:40:00,48.4,47.8,29.50,East,90,2.2,2.2,98,0.00,,---,0.21,VWS V14.01,2013-05-25 10:40:00,
2013-05-25 06:45:00,48.4,47.8,29.50,West,270,0.0,2.5,98,0.00,,---,0.21,VWS V14.01,2013-05-25 10:45:00,
2013-05-25 06:50:00,48.4,47.8,29.50,North,0,1.1,2.5,98,0.00,,---,0.21,VWS V14.01,2013-05-25 10:50:00,
2013-05-25 06:55:00,48.4,47.8,29.50,ESE,112,3.6,3.6,98,0.00,,---,0.21,VWS V14.01,2013-05-25 10:55:00,
2013-05-25 06:59:00,48.4,47.8,29.50,ESE,112,1.3,1.3,98,0.00,,---,0.21,VWS V14.01,2013-05-25 10:59:00,
2013-05-25 07:04:00,48.4,47.8,29.50,West,270,1.6,1.6,98,0.00,,---,0.21,VWS V14.01,2013-05-25 11:04:00,
2013-05-25 07:09:00,48.6,48.0,29.50,ESE,112,1.3,1.3,98,0.00,,---,0.21,VWS V14.01,2013-05-25 11:09:00,
2013-05-25 07:14:00,48.6,48.0,29.50,NE,45,1.3,1.3,98,0.00,,---,0.21,VWS V14.01,2013-05-25 11:14:00,
2013-05-25 07:19:00,48.7,48.2,29.50,SE,135,0.0,1.1,98,0.00,,---,0.21,VWS V14.01,2013-05-25 11:19:00,
2013-05-25 07:24:00,48.6,48.0,29.47,SE,135,1.6,2.0,98,0.00,,---,0.21,VWS V14.01,2013-05-25 11:24:00,
2013-05-25 07:29:00,48.6,48.0,29.47,East,90,0.9,1.3,98,0.00,,---,0.21,VWS V14.01,2013-05-25 11:29:00,
2013-05-25 07:34:00,48.6,48.0,29.47,NNE,22,0.0,0.0,98,0.00,,---,0.21,VWS V14.01,2013-05-25 11:34:00,
2013-05-25 07:39:00,48.6,48.0,29.47,ESE,112,1.1,1.3,98,0.00,,---,0.21,VWS V14.01,2013-05-25 11:39:00,
2013-05-25 07:44:00,48.4,47.8,29.47,SE,135,0.9,2.0,98,0.00,,---,0.21,VWS V14.01,2013-05-25 11:44:00,
2013-05-25 07:49:00,48.6,48.0,29.47,East,90,0.9,1.1,98,0.00,,---,0.21,VWS V14.01,2013-05-25 11:49:00,
2013-05-25 07:54:00,48.7,48.2,29.50,West,270,0.0,0.9,98,0.00,,---,0.21,VWS V14.01,2013-05-25 11:54:00,
2013-05-25 07:59:00,48.7,48.2,29.50,East,90,1.1,1.1,98,0.04,,---,0.25,VWS V14.01,2013-05-25 11:59:00,
2013-05-25 08:04:00,48.7,48.2,29.50,South,180,3.4,3.4,98,0.04,,---,0.25,VWS V14.01,2013-05-25 12:04:00,
2013-05-25 08:09:00,48.7,48.2,29.50,NW,315,0.9,1.1,98,0.04,,---,0.25,VWS V14.01,2013-05-25 12:09:00,
2013-05-25 08:14:00,48.7,48.2,29.50,North,0,0.9,1.1,98,0.04,,---,0.25,VWS V14.01,2013-05-25 12:14:00,
2013-05-25 08:19:00,48.6,48.0,29.50,East,90,1.3,1.6,98,0.04,,---,0.25,VWS V14.01,2013-05-25 12:19:00,
2013-05-25 08:24:00,48.6,48.0,29.50,West,270,2.0,2.0,98,0.04,,---,0.25,VWS V14.01,2013-05-25 12:24:00,
2013-05-25 08:29:00,48.6,48.0,29.50,East,90,0.0,1.1,98,0.04,,---,0.25,VWS V14.01,2013-05-25 12:29:00,
2013-05-25 08:34:00,48.7,48.2,29.50,East,90,2.5,3.4,98,0.04,,---,0.25,VWS V14.01,2013-05-25 12:34:00,
2013-05-25 08:39:00,48.9,48.4,29.47,NW,315,1.3,1.3,98,0.04,,---,0.25,VWS V14.01,2013-05-25 12:39:00,
2013-05-25 08:44:00,48.9,48.4,29.47,NW,315,1.3,3.1,98,0.04,,---,0.25,VWS V14.01,2013-05-25 12:44:00,
2013-05-25 08:49:00,49.1,48.6,29.47,East,90,0.9,1.6,98,0.04,,---,0.25,VWS V14.01,2013-05-25 12:49:00,
2013-05-25 08:54:00,49.3,48.7,29.47,East,90,2.0,4.0,98,0.04,,---,0.25,VWS V14.01,2013-05-25 12:54:00,
2013-05-25 08:59:00,49.5,48.9,29.47,NNE,22,1.6,1.6,98,0.00,,---,0.25,VWS V14.01,2013-05-25 12:59:00,
2013-05-25 09:04:00,49.6,49.1,29.47,North,0,0.0,0.9,98,0.00,,---,0.25,VWS V14.01,2013-05-25 13:04:00,
2013-05-25 09:09:00,49.6,49.1,29.47,ENE,68,0.0,1.6,98,0.00,,---,0.25,VWS V14.01,2013-05-25 13:09:00,
2013-05-25 09:14:00,49.6,49.1,29.47,ENE,68,2.7,2.7,98,0.00,,---,0.25,VWS V14.01,2013-05-25 13:14:00,
2013-05-25 09:19:00,49.5,48.9,29.47,East,90,2.7,2.7,98,0.00,,---,0.25,VWS V14.01,2013-05-25 13:19:00,
2013-05-25 09:24:00,49.5,48.9,29.47,East,90,3.4,3.4,98,0.00,,---,0.25,VWS V14.01,2013-05-25 13:24:00,
2013-05-25 09:29:00,49.5,48.9,29.47,West,270,1.3,2.5,98,0.00,,---,0.25,VWS V14.01,2013-05-25 13:29:00,
2013-05-25 09:34:00,49.6,49.1,29.47,North,0,1.1,1.6,98,0.00,,---,0.25,VWS V14.01,2013-05-25 13:34:00,
2013-05-25 09:39:00,49.6,49.1,29.47,ENE,68,0.9,1.3,98,0.00,,---,0.25,VWS V14.01,2013-05-25 13:39:00,
2013-05-25 09:44:00,49.6,49.1,29.47,West,270,2.7,4.5,98,0.00,,---,0.25,VWS V14.01,2013-05-25 13:44:00,
2013-05-25 09:49:00,49.6,48.8,29.47,East,90,1.6,2.9,97,0.00,,---,0.25,VWS V14.01,2013-05-25 13:49:00,
2013-05-25 09:54:00,49.8,49.3,29.47,West,270,0.0,0.9,98,0.00,,---,0.25,VWS V14.01,2013-05-25 13:54:00,
2013-05-25 09:59:00,50.0,49.2,29.47,West,270,1.3,1.6,97,0.00,,---,0.25,VWS V14.01,2013-05-25 13:59:00,
2013-05-25 10:04:00,50.0,49.2,29.47,East,90,0.0,1.3,97,0.00,,---,0.25,VWS V14.01,2013-05-25 14:04:00,
2013-05-25 10:09:00,50.0,49.2,29.47,East,90,2.5,3.4,97,0.00,,---,0.25,VWS V14.01,2013-05-25 14:09:00,
2013-05-25 10:14:00,49.8,49.0,29.47,NE,45,2.0,3.6,97,0.00,,---,0.25,VWS V14.01,2013-05-25 14:14:00,
2013-05-25 10:19:00,50.0,49.2,29.47,East,90,1.3,1.3,97,0.00,,---,0.25,VWS V14.01,2013-05-25 14:19:00,
2013-05-25 10:24:00,50.0,49.2,29.47,WSW,248,0.0,1.1,97,0.00,,---,0.25,VWS V14.01,2013-05-25 14:24:00,
2013-05-25 10:29:00,50.2,49.4,29.47,SE,135,0.0,1.1,97,0.00,,---,0.25,VWS V14.01,2013-05-25 14:29:00,
2013-05-25 10:34:00,50.2,49.4,29.47,SW,225,0.9,0.9,97,0.04,,---,0.29,VWS V14.01,2013-05-25 14:34:00,
2013-05-25 10:39:00,50.4,49.5,29.47,North,0,1.1,1.1,97,0.04,,---,0.29,VWS V14.01,2013-05-25 14:39:00,
2013-05-25 10:44:00,50.5,49.7,29.47,East,90,0.9,0.9,97,0.04,,---,0.29,VWS V14.01,2013-05-25 14:44:00,
2013-05-25 10:49:00,50.7,49.9,29.47,East,90,1.1,2.2,97,0.04,,---,0.29,VWS V14.01,2013-05-25 14:49:00,
2013-05-25 10:54:00,50.7,49.9,29.47,East,90,2.7,2.7,97,0.04,,---,0.29,VWS V14.01,2013-05-25 14:54:00,
2013-05-25 10:59:00,50.7,49.9,29.47,NE,45,0.9,1.6,97,0.04,,---,0.29,VWS V14.01,2013-05-25 14:59:00,
2013-05-25 11:04:00,50.9,50.1,29.47,East,90,2.2,2.2,97,0.04,,---,0.29,VWS V14.01,2013-05-25 15:04:00,
2013-05-25 11:09:00,51.1,50.3,29.44,NW,315,1.1,2.2,97,0.04,,---,0.29,VWS V14.01,2013-05-25 15:09:00,
2013-05-25 11:14:00,51.4,50.6,29.44,West,270,0.0,0.0,97,0.04,,---,0.29,VWS V14.01,2013-05-25 15:14:00,
2013-05-25 11:19:00,51.4,50.6,29.44,ENE,68,0.0,0.9,97,0.04,,---,0.29,VWS V14.01,2013-05-25 15:19:00,
2013-05-25 11:24:00,51.4,50.6,29.44,WSW,248,2.7,2.7,97,0.04,,---,0.29,VWS V14.01,2013-05-25 15:24:00,
2013-05-25 11:29:00,51.3,50.2,29.44,NE,45,1.1,3.1,96,0.04,,---,0.29,VWS V14.01,2013-05-25 15:29:00,
2013-05-25 11:34:00,51.1,50.0,29.44,NE,45,1.3,1.3,96,0.00,,---,0.29,VWS V14.01,2013-05-25 15:34:00,
2013-05-25 11:39:00,51.4,50.3,29.44,SE,135,2.5,2.5,96,0.00,,---,0.29,VWS V14.01,2013-05-25 15:39:00,
2013-05-25 11:44:00,51.6,50.8,29.44,ENE,68,0.0,1.3,97,0.00,,---,0.29,VWS V14.01,2013-05-25 15:44:00,
2013-05-25 11:49:00,51.8,50.7,29.44,East,90,1.3,1.6,96,0.00,,---,0.29,VWS V14.01,2013-05-25 15:49:00,
2013-05-25 11:54:00,52.2,51.1,29.44,South,180,0.0,0.0,96,0.00,,---,0.29,VWS V14.01,2013-05-25 15:54:00,
2013-05-25 11:59:00,51.6,50.5,29.44,NW,315,0.0,0.9,96,0.04,,---,0.33,VWS V14.01,2013-05-25 15:59:00,
2013-05-25 12:04:00,51.6,50.2,29.44,East,90,1.6,1.6,95,0.04,,---,0.33,VWS V14.01,2013-05-25 16:04:00,
2013-05-25 12:09:00,51.8,50.4,29.41,East,90,0.0,0.0,95,0.04,,---,0.33,VWS V14.01,2013-05-25 16:09:00,
2013-05-25 12:14:00,51.6,50.5,29.41,NNE,22,0.9,0.9,96,0.04,,---,0.33,VWS V14.01,2013-05-25 16:14:00,
2013-05-25 12:19:00,51.4,50.1,29.41,NW,315,3.6,3.6,95,0.04,,---,0.33,VWS V14.01,2013-05-25 16:19:00,
2013-05-25 12:24:00,51.3,49.9,29.41,East,90,2.0,3.1,95,0.04,,---,0.33,VWS V14.01,2013-05-25 16:24:00,
2013-05-25 12:29:00,51.3,50.2,29.41,NW,315,0.9,1.1,96,0.04,,---,0.33,VWS V14.01,2013-05-25 16:29:00,
2013-05-25 12:34:00,51.8,50.7,29.41,East,90,3.6,3.6,96,0.04,,---,0.33,VWS V14.01,2013-05-25 16:34:00,
2013-05-25 12:39:00,51.8,50.4,29.44,East,90,0.9,2.0,95,0.04,,---,0.33,VWS V14.01,2013-05-25 16:39:00,
2013-05-25 12:44:00,51.8,50.4,29.44,South,180,2.5,2.5,95,0.04,,---,0.33,VWS V14.01,2013-05-25 16:44:00,
2013-05-25 12:49:00,51.8,50.4,29.44,East,90,2.0,2.5,95,0.04,,---,0.33,VWS V14.01,2013-05-25 16:49:00,
2013-05-25 12:54:00,51.8,50.4,29.44,East,90,1.1,2.5,95,0.04,,---,0.33,VWS V14.01,2013-05-25 16:54:00,
2013-05-25 12:59:00,52.0,50.6,29.44,West,270,7.2,7.2,95,0.00,,---,0.33,VWS V14.01,2013-05-25 16:59:00,
2013-05-25 13:04:00,51.4,50.1,29.44,East,90,1.6,2.2,95,0.00,,---,0.33,VWS V14.01,2013-05-25 17:04:00,
2013-05-25 13:09:00,51.6,50.2,29.47,SE,135,1.6,1.6,95,0.00,,---,0.33,VWS V14.01,2013-05-25 17:09:00,
2013-05-25 13:14:00,51.8,50.4,29.47,SE,135,3.1,3.1,95,0.00,,---,0.33,VWS V14.01,2013-05-25 17:14:00,
2013-05-25 13:19:00,52.0,50.3,29.47,East,90,3.8,3.8,94,0.00,,---,0.33,VWS V14.01,2013-05-25 17:19:00,
2013-05-25 13:24:00,52.2,50.5,29.44,SE,135,0.9,4.3,94,0.00,,---,0.33,VWS V14.01,2013-05-25 17:24:00,
2013-05-25 13:28:00,53.1,51.4,29.44,West,270,2.9,3.4,94,0.00,,---,0.33,VWS V14.01,2013-05-25 17:28:00,
2013-05-25 13:33:00,53.1,51.4,29.44,East,90,2.5,2.5,94,0.00,,---,0.33,VWS V14.01,2013-05-25 17:33:00,
2013-05-25 13:38:00,53.1,51.4,29.44,South,180,1.1,1.3,94,0.00,,---,0.33,VWS V14.01,2013-05-25 17:38:00,
2013-05-25 13:43:00,52.5,50.8,29.44,East,90,0.9,2.7,94,0.00,,---,0.33,VWS V14.01,2013-05-25 17:43:00,
2013-05-25 13:48:00,52.2,50.5,29.44,NE,45,2.5,2.5,94,0.00,,---,0.33,VWS V14.01,2013-05-25 17:48:00,
2013-05-25 13:53:00,52.0,50.3,29.44,East,90,3.8,3.8,94,0.00,,---,0.33,VWS V14.01,2013-05-25 17:53:00,
2013-05-25 13:58:00,51.8,49.8,29.44,South,180,2.0,2.9,93,0.00,,---,0.33,VWS V14.01,2013-05-25 17:58:00,
2013-05-25 14:03:00,51.6,50.0,29.44,West,270,2.5,3.4,94,0.00,,---,0.33,VWS V14.01,2013-05-25 18:03:00,
2013-05-25 14:08:00,51.6,50.2,29.44,SE,135,3.1,3.1,95,0.00,,---,0.33,VWS V14.01,2013-05-25 18:08:00,
2013-05-25 14:13:00,51.6,50.2,29.44,North,0,0.0,2.0,95,0.00,,---,0.33,VWS V14.01,2013-05-25 18:13:00,
2013-05-25 14:18:00,51.6,50.2,29.44,South,180,1.3,1.6,95,0.00,,---,0.33,VWS V14.01,2013-05-25 18:18:00,
2013-05-25 14:23:00,51.8,50.4,29.44,East,90,2.2,2.2,95,0.00,,---,0.33,VWS V14.01,2013-05-25 18:23:00,
2013-05-25 14:28:00,51.8,50.4,29.44,North,0,1.3,3.6,95,0.00,,---,0.33,VWS V14.01,2013-05-25 18:28:00,
2013-05-25 14:33:00,51.6,50.2,29.44,WSW,248,1.1,3.1,95,0.00,,---,0.33,VWS V14.01,2013-05-25 18:33:00,
2013-05-25 14:38:00,51.4,50.1,29.44,East,90,0.9,1.3,95,0.00,,---,0.33,VWS V14.01,2013-05-25 18:38:00,
2013-05-25 14:43:00,51.6,50.2,29.44,West,270,1.6,3.1,95,0.00,,---,0.33,VWS V14.01,2013-05-25 18:43:00,
2013-05-25 14:48:00,51.3,49.9,29.44,NW,315,3.8,3.8,95,0.00,,---,0.33,VWS V14.01,2013-05-25 18:48:00,
2013-05-25 14:53:00,50.9,49.2,29.44,West,270,1.6,3.4,94,0.05,,---,0.38,VWS V14.01,2013-05-25 18:53:00,
2013-05-25 14:58:00,50.7,49.1,29.44,East,90,2.0,2.0,94,0.05,,---,0.38,VWS V14.01,2013-05-25 18:58:00,
2013-05-25 15:03:00,50.9,49.5,29.44,SSE,158,2.9,2.9,95,0.05,,---,0.38,VWS V14.01,2013-05-25 19:03:00,
2013-05-25 15:08:00,51.1,49.7,29.44,ENE,68,0.9,1.3,95,0.05,,---,0.38,VWS V14.01,2013-05-25 19:08:00,
2013-05-25 15:13:00,50.7,49.3,29.44,NW,315,0.9,1.1,95,0.05,,---,0.38,VWS V14.01,2013-05-25 19:13:00,
2013-05-25 15:18:00,50.5,49.2,29.44,SE,135,1.6,2.0,95,0.05,,---,0.38,VWS V14.01,2013-05-25 19:18:00,
2013-05-25 15:23:00,50.2,48.8,29.44,East,90,4.3,4.3,95,0.05,,---,0.38,VWS V14.01,2013-05-25 19:23:00,
2013-05-25 15:28:00,49.8,48.5,29.44,West,270,1.1,4.0,95,0.05,,---,0.38,VWS V14.01,2013-05-25 19:28:00,
2013-05-25 15:33:00,49.6,48.3,29.44,East,90,2.5,2.7,95,0.05,,---,0.38,VWS V14.01,2013-05-25 19:33:00,
2013-05-25 15:38:00,49.5,48.1,29.44,NE,45,1.1,1.3,95,0.05,,---,0.38,VWS V14.01,2013-05-25 19:38:00,
2013-05-25 15:43:00,49.1,47.7,29.41,East,90,1.1,3.1,95,0.05,,---,0.38,VWS V14.01,2013-05-25 19:43:00,
2013-05-25 15:48:00,48.9,47.5,29.41,NW,315,3.6,3.6,95,0.05,,---,0.38,VWS V14.01,2013-05-25 19:48:00,
2013-05-25 15:53:00,48.7,47.4,29.41,NW,315,1.1,2.5,95,0.00,,---,0.38,VWS V14.01,2013-05-25 19:53:00,
2013-05-25 15:58:00,48.9,47.8,29.41,East,90,7.4,7.4,96,0.04,,---,0.42,VWS V14.01,2013-05-25 19:58:00,
2013-05-25 16:03:00,48.4,47.0,29.41,South,180,2.5,3.4,95,0.04,,---,0.42,VWS V14.01,2013-05-25 20:03:00,
2013-05-25 16:08:00,48.0,46.7,29.41,NE,45,5.8,5.8,95,0.04,,---,0.42,VWS V14.01,2013-05-25 20:08:00,
2013-05-25 16:13:00,48.0,46.9,29.44,NW,315,1.6,2.0,96,0.04,,---,0.42,VWS V14.01,2013-05-25 20:13:00,
2013-05-25 16:18:00,48.0,46.9,29.44,WSW,248,0.9,1.3,96,0.04,,---,0.42,VWS V14.01,2013-05-25 20:18:00,
2013-05-25 16:23:00,47.7,46.6,29.44,NE,45,1.6,1.6,96,0.04,,---,0.42,VWS V14.01,2013-05-25 20:23:00,
2013-05-25 16:28:00,47.3,46.2,29.44,NW,315,1.1,2.0,96,0.04,,---,0.42,VWS V14.01,2013-05-25 20:28:00,
2013-05-25 16:33:00,47.1,46.0,29.44,West,270,2.2,2.2,96,0.04,,---,0.42,VWS V14.01,2013-05-25 20:33:00,
2013-05-25 16:38:00,47.1,46.0,29.44,SE,135,0.0,0.0,96,0.04,,---,0.42,VWS V14.01,2013-05-25 20:38:00,
2013-05-25 16:43:00,47.1,46.0,29.44,East,90,2.0,2.0,96,0.04,,---,0.42,VWS V14.01,2013-05-25 20:43:00,
2013-05-25 16:48:00,46.9,45.9,29.44,West,270,1.6,2.0,96,0.04,,---,0.42,VWS V14.01,2013-05-25 20:48:00,
2013-05-25 16:53:00,46.8,45.7,29.44,ENE,68,1.6,1.6,96,0.04,,---,0.42,VWS V14.01,2013-05-25 20:53:00,
2013-05-25 16:58:00,46.6,45.5,29.44,ENE,68,1.3,1.3,96,0.00,,---,0.42,VWS V14.01,2013-05-25 20:58:00,
2013-05-25 17:03:00,46.2,45.2,29.44,West,270,0.0,1.6,96,0.00,,---,0.42,VWS V14.01,2013-05-25 21:03:00,
2013-05-25 17:08:00,45.9,44.8,29.44,West,270,0.0,0.0,96,0.00,,---,0.42,VWS V14.01,2013-05-25 21:08:00,
2013-05-25 17:13:00,45.5,44.4,29.44,East,90,1.3,1.3,96,0.00,,---,0.42,VWS V14.01,2013-05-25 21:13:00,
2013-05-25 17:18:00,45.0,43.9,29.44,East,90,1.3,1.3,96,0.00,,---,0.42,VWS V14.01,2013-05-25 21:18:00,
2013-05-25 17:23:00,45.0,43.9,29.44,SE,135,2.2,2.2,96,0.00,,---,0.42,VWS V14.01,2013-05-25 21:23:00,
2013-05-25 17:28:00,44.6,43.5,29.44,East,90,2.0,2.0,96,0.00,,---,0.42,VWS V14.01,2013-05-25 21:28:00,
2013-05-25 17:33:00,44.4,43.3,29.44,East,90,1.1,1.1,96,0.00,,---,0.42,VWS V14.01,2013-05-25 21:33:00,
2013-05-25 17:38:00,44.2,43.2,29.44,WSW,248,2.7,2.9,96,0.00,,---,0.42,VWS V14.01,2013-05-25 21:38:00,
2013-05-25 17:43:00,44.1,43.3,29.44,WSW,248,2.9,2.9,97,0.00,,---,0.42,VWS V14.01,2013-05-25 21:43:00,
2013-05-25 17:48:00,44.1,43.3,29.44,East,90,2.2,2.2,97,0.00,,---,0.42,VWS V14.01,2013-05-25 21:48:00,
2013-05-25 17:53:00,44.1,43.3,29.44,NW,315,1.6,1.6,97,0.00,,---,0.42,VWS V14.01,2013-05-25 21:53:00,
2013-05-25 17:58:00,44.1,43.3,29.44,WSW,248,1.6,1.6,97,0.00,,---,0.42,VWS V14.01,2013-05-25 21:58:00,
2013-05-25 18:03:00,43.7,42.9,29.44,ESE,112,1.3,2.0,97,0.00,,---,0.42,VWS V14.01,2013-05-25 22:03:00,
2013-05-25 18:08:00,43.5,42.7,29.44,East,90,1.1,1.1,97,0.00,,---,0.42,VWS V14.01,2013-05-25 22:08:00,
2013-05-25 18:13:00,43.3,42.5,29.44,East,90,2.7,2.7,97,0.00,,---,0.42,VWS V14.01,2013-05-25 22:13:00,
2013-05-25 18:18:00,43.3,42.5,29.44,SE,135,2.9,2.9,97,0.00,,---,0.42,VWS V14.01,2013-05-25 22:18:00,
2013-05-25 18:23:00,43.3,42.5,29.44,WSW,248,1.1,1.1,97,0.00,,---,0.42,VWS V14.01,2013-05-25 22:23:00,
2013-05-25 18:28:00,43.2,42.6,29.44,SW,225,3.4,4.0,98,0.00,,---,0.42,VWS V14.01,2013-05-25 22:28:00,
2013-05-25 18:33:00,43.2,42.4,29.44,NNW,338,1.6,4.3,97,0.00,,---,0.42,VWS V14.01,2013-05-25 22:33:00,
2013-05-25 18:38:00,43.0,42.2,29.44,South,180,2.2,6.3,97,0.00,,---,0.42,VWS V14.01,2013-05-25 22:38:00,
2013-05-25 18:43:00,43.0,42.2,29.44,NW,315,2.7,3.1,97,0.00,,---,0.42,VWS V14.01,2013-05-25 22:43:00,
2013-05-25 18:48:00,43.0,42.2,29.44,NW,315,3.8,4.0,97,0.00,,---,0.42,VWS V14.01,2013-05-25 22:48:00,
2013-05-25 18:53:00,42.8,42.0,29.44,East,90,1.6,2.7,97,0.00,,---,0.42,VWS V14.01,2013-05-25 22:53:00,
2013-05-25 18:57:00,42.8,42.0,29.47,SE,135,2.2,3.4,97,0.00,,---,0.42,VWS V14.01,2013-05-25 22:57:00,
2013-05-25 19:02:00,42.8,42.0,29.47,SSW,202,0.9,0.9,97,0.00,,---,0.42,VWS V14.01,2013-05-25 23:02:00,
2013-05-25 19:07:00,42.6,42.1,29.47,West,270,1.6,3.1,98,0.00,,---,0.42,VWS V14.01,2013-05-25 23:07:00,
2013-05-25 19:12:00,42.6,41.8,29.44,SE,135,2.0,2.2,97,0.00,,---,0.42,VWS V14.01,2013-05-25 23:12:00,
2013-05-25 19:17:00,42.8,42.0,29.44,West,270,7.8,7.8,97,0.00,,---,0.42,VWS V14.01,2013-05-25 23:17:00,
2013-05-25 19:22:00,42.6,42.1,29.44,NE,45,2.7,2.7,98,0.00,,---,0.42,VWS V14.01,2013-05-25 23:22:00,
2013-05-25 19:27:00,42.6,41.8,29.41,SE,135,0.0,2.5,97,0.00,,---,0.42,VWS V14.01,2013-05-25 23:27:00,
2013-05-25 19:32:00,42.4,41.7,29.41,West,270,4.0,4.0,97,0.00,,---,0.42,VWS V14.01,2013-05-25 23:32:00,
2013-05-25 19:37:00,42.4,41.7,29.41,East,90,1.1,2.7,97,0.00,,---,0.42,VWS V14.01,2013-05-25 23:37:00,
2013-05-25 19:42:00,42.4,41.7,29.44,West,270,1.3,6.5,97,0.00,,---,0.42,VWS V14.01,2013-05-25 23:42:00,
2013-05-25 19:47:00,42.4,41.7,29.44,SE,135,0.0,2.9,97,0.00,,---,0.42,VWS V14.01,2013-05-25 23:47:00,
2013-05-25 19:52:00,42.4,41.7,29.44,SE,135,1.3,2.7,97,0.00,,---,0.42,VWS V14.01,2013-05-25 23:52:00,
2013-05-25 19:57:00,42.3,41.5,29.44,South,180,1.6,2.0,97,0.00,,---,0.42,VWS V14.01,2013-05-25 23:57:00,
2013-05-25 20:02:00,42.3,41.5,29.44,West,270,3.4,3.4,97,0.00,,---,0.42,VWS V14.01,2013-05-26 00:02:00,
2013-05-25 20:07:00,42.3,41.5,29.44,South,180,1.1,3.4,97,0.00,,---,0.42,VWS V14.01,2013-05-26 00:07:00,
2013-05-25 20:12:00,42.3,41.5,29.47,South,180,0.0,1.1,97,0.00,,---,0.42,VWS V14.01,2013-05-26 00:12:00,
2013-05-25 20:17:00,42.3,41.2,29.47,SSW,202,1.3,1.3,96,0.00,,---,0.42,VWS V14.01,2013-05-26 00:17:00,
2013-05-25 20:22:00,42.3,41.2,29.47,East,90,1.1,3.6,96,0.00,,---,0.42,VWS V14.01,2013-05-26 00:22:00,
2013-05-25 20:27:00,42.3,41.2,29.44,ESE,112,2.0,4.0,96,0.00,,---,0.42,VWS V14.01,2013-05-26 00:27:00,
2013-05-25 20:32:00,42.3,41.2,29.44,North,0,2.5,3.1,96,0.00,,---,0.42,VWS V14.01,2013-05-26 00:32:00,
2013-05-25 20:37:00,42.3,40.9,29.44,East,90,0.9,3.1,95,0.00,,---,0.42,VWS V14.01,2013-05-26 00:37:00,
2013-05-25 20:42:00,42.3,40.9,29.44,WNW,292,1.6,3.4,95,0.00,,---,0.42,VWS V14.01,2013-05-26 00:42:00,
2013-05-25 20:47:00,42.3,40.7,29.44,ENE,68,4.0,4.3,94,0.00,,---,0.42,VWS V14.01,2013-05-26 00:47:00,
2013-05-25 20:52:00,42.3,40.4,29.44,NW,315,5.6,5.6,93,0.00,,---,0.42,VWS V14.01,2013-05-26 00:52:00,
2013-05-25 20:57:00,42.3,40.4,29.44,East,90,3.1,3.8,93,0.00,,---,0.42,VWS V14.01,2013-05-26 00:57:00,
2013-05-25 21:02:00,42.3,39.8,29.44,ENE,68,1.1,3.8,91,0.00,,---,0.42,VWS V14.01,2013-05-26 01:02:00,
2013-05-25 21:07:00,42.3,39.8,29.44,NW,315,2.9,5.4,91,0.00,,---,0.42,VWS V14.01,2013-05-26 01:07:00,
2013-05-25 21:12:00,42.3,39.8,29.44,West,270,2.7,4.7,91,0.00,,---,0.42,VWS V14.01,2013-05-26 01:12:00,
2013-05-25 21:17:00,42.1,39.7,29.44,ENE,68,3.6,3.6,91,0.00,,---,0.42,VWS V14.01,2013-05-26 01:17:00,
2013-05-25 21:22:00,42.1,39.4,29.44,North,0,2.9,2.9,90,0.00,,---,0.42,VWS V14.01,2013-05-26 01:22:00,
2013-05-25 21:27:00,42.1,39.4,29.44,NE,45,2.5,4.0,90,0.00,,---,0.42,VWS V14.01,2013-05-26 01:27:00,
2013-05-25 21:32:00,42.1,39.1,29.44,SE,135,1.6,2.5,89,0.00,,---,0.42,VWS V14.01,2013-05-26 01:32:00,
2013-05-25 21:37:00,42.1,38.8,29.44,ENE,68,1.6,1.6,88,0.00,,---,0.42,VWS V14.01,2013-05-26 01:37:00,
2013-05-25 21:42:00,41.9,38.6,29.44,NNE,22,9.8,9.8,88,0.00,,---,0.42,VWS V14.01,2013-05-26 01:42:00,
2013-05-25 21:47:00,41.9,38.3,29.44,NW,315,2.0,2.5,87,0.00,,---,0.42,VWS V14.01,2013-05-26 01:47:00,
2013-05-25 21:52:00,41.7,38.7,29.44,ENE,68,2.7,2.9,89,0.00,,---,0.42,VWS V14.01,2013-05-26 01:52:00,
2013-05-25 21:57:00,41.7,38.4,29.47,ENE,68,2.7,3.6,88,0.00,,---,0.42,VWS V14.01,2013-05-26 01:57:00,
2013-05-25 22:02:00,41.7,38.4,29.47,West,270,2.0,2.0,88,0.00,,---,0.42,VWS V14.01,2013-05-26 02:02:00,
2013-05-25 22:07:00,41.5,38.3,29.47,SE,135,1.3,3.1,88,0.00,,---,0.42,VWS V14.01,2013-05-26 02:07:00,
2013-05-25 22:12:00,41.5,38.0,29.44,East,90,3.8,6.3,87,0.00,,---,0.42,VWS V14.01,2013-05-26 02:12:00,
2013-05-25 22:17:00,41.4,38.1,29.44,East,90,2.0,2.0,88,0.00,,---,0.42,VWS V14.01,2013-05-26 02:17:00,
2013-05-25 22:22:00,41.2,37.6,29.44,NW,315,4.7,4.7,87,0.00,,---,0.42,VWS V14.01,2013-05-26 02:22:00,
2013-05-25 22:27:00,41.2,37.9,29.44,SW,225,2.2,2.9,88,0.00,,---,0.42,VWS V14.01,2013-05-26 02:27:00,
2013-05-25 22:32:00,41.0,37.1,29.44,SW,225,1.3,5.6,86,0.00,,---,0.42,VWS V14.01,2013-05-26 02:32:00,
2013-05-25 22:37:00,41.0,37.4,29.44,East,90,2.9,2.9,87,0.00,,---,0.42,VWS V14.01,2013-05-26 02:37:00,
2013-05-25 22:42:00,40.8,37.3,29.44,SE,135,2.7,2.7,87,0.00,,---,0.42,VWS V14.01,2013-05-26 02:42:00,
2013-05-25 22:47:00,40.6,37.1,29.44,NW,315,3.4,5.6,87,0.00,,---,0.42,VWS V14.01,2013-05-26 02:47:00,
2013-05-25 22:52:00,40.6,37.1,29.44,East,90,2.2,4.0,87,0.00,,---,0.42,VWS V14.01,2013-05-26 02:52:00,
2013-05-25 22:57:00,40.5,36.9,29.44,West,270,4.9,4.9,87,0.00,,---,0.42,VWS V14.01,2013-05-26 02:57:00,
2013-05-25 23:02:00,40.3,36.7,29.44,East,90,1.1,1.1,87,0.00,,---,0.42,VWS V14.01,2013-05-26 03:02:00,
2013-05-25 23:07:00,40.1,36.8,29.44,NE,45,3.4,3.4,88,0.00,,---,0.42,VWS V14.01,2013-05-26 03:07:00,
2013-05-25 23:12:00,39.9,36.7,29.44,SE,135,4.3,4.3,88,0.00,,---,0.42,VWS V14.01,2013-05-26 03:12:00,
2013-05-25 23:17:00,39.7,36.5,29.44,WSW,248,1.6,6.5,88,0.00,,---,0.42,VWS V14.01,2013-05-26 03:17:00,
2013-05-25 23:22:00,39.4,36.4,29.44,SE,135,2.0,3.6,89,0.00,,---,0.42,VWS V14.01,2013-05-26 03:22:00,
2013-05-25 23:27:00,39.2,36.8,29.44,West,270,1.6,4.7,91,0.00,,---,0.42,VWS V14.01,2013-05-26 03:27:00,
2013-05-25 23:32:00,39.0,36.9,29.44,West,270,0.9,1.6,92,0.00,,---,0.42,VWS V14.01,2013-05-26 03:32:00,
2013-05-25 23:37:00,38.8,37.0,29.44,East,90,2.2,2.2,93,0.00,,---,0.42,VWS V14.01,2013-05-26 03:37:00,
2013-05-25 23:42:00,38.8,37.3,29.44,NW,315,3.1,3.1,94,0.00,,---,0.42,VWS V14.01,2013-05-26 03:42:00,
2013-05-25 23:47:00,38.7,37.1,29.44,NNE,22,5.6,5.6,94,0.00,,---,0.42,VWS V14.01,2013-05-26 03:47:00,
2013-05-25 23:52:00,38.7,37.3,29.44,West,270,3.4,3.4,95,0.00,,---,0.42,VWS V14.01,2013-05-26 03:52:00,
2013-05-25 23:57:00,38.7,37.3,29.44,NW,315,2.5,2.7,95,0.00,,---,0.42,VWS V14.01,2013-05-26 03:57:00,